Weather History for Corsicana, TX

Change the Weather History Date:

Friday, April 12, 2013

  Actual Average (KACT) Record (KACT)
Temperature  
Mean Temperature 59 °F 65 °F  
Max Temperature 77 °F 77 °F 94 °F (1966)
Min Temperature 43 °F 54 °F 32 °F (1940)
Degree Days  
Heating Degree Days 6 3  
Month to date heating degree days 47  
Since 1 July heating degree days 2105  
Cooling Degree Days 0 3  
Month to date cooling degree days 31  
Year to date cooling degree days 74  
Growing Degree Days 9 (Base 50)    
Moisture  
Dew Point 43 °F    
Average Humidity 58    
Maximum Humidity 86    
Minimum Humidity 31    
Precipitation  
Precipitation 0.00 in 0.08 in 2.49 in (1923)
Month to date precipitation 0.91  
Year to date precipitation 8.81  
Snow  
Snow 0.00 in 0.00 in 0.00 in ()
Month to date snowfall 0.1  
Since 1 July snowfall 1.1  
Snow Depth -    
Sea Level Pressure  
Sea Level Pressure 29.94 in    
Wind  
Wind Speed 3 mph (SSE)    
Max Wind Speed 8 mph    
Max Gust Speed -    
Visibility 10 miles    
Events      
T = Trace of Precipitation, MM = Missing Value Source: NWS Daily Summary

Daily Weather History Graph

Daily Weather History Graph

Search for Another Location

Airport:

Trip Planner

Search our weather history database for the weather conditions in past years. The results will help you decide how hot, cold, wet, or windy it might be!

Date:

Astronomy

Apr. 12, 2013 Rise Set
Actual Time 6:59 AM CDT 7:53 PM CDT
Civil Twilight 6:35 AM CDT 8:18 PM CDT
Nautical Twilight 6:05 AM CDT 8:47 PM CDT
Astronomical Twilight 5:35 AM CDT 9:18 PM CDT
Moon 8:18 AM CDT (4/12) 10:15 PM CDT (4/12)
Length of Visible Light 13h 43m
Length of Day
12h 53m
Waxing Crescent, 5% of the Moon is Illuminated
Apr 12
Waxing Crescent
Apr 18
First Quarter
Apr 25
Full
May 2
Last Quarter
May 9
New

Hourly Weather History & Observations

Time (CDT) Temp. Windchill Dew Point Humidity Pressure Visibility Wind Dir Wind Speed Gust Speed Precip Events Conditions
12:53 AM 48.9 °F - 43.0 °F 80% 29.90 in 9.0 mi Calm Calm - N/A   Clear
1:53 AM 45.0 °F 41.2 °F 41.0 °F 86% 29.91 in 9.0 mi SSW 6.9 mph - N/A   Clear
2:53 AM 45.0 °F 43.5 °F 39.0 °F 80% 29.90 in 9.0 mi SSW 3.5 mph - N/A   Clear
3:53 AM 46.0 °F - 39.9 °F 79% 29.89 in 10.0 mi Calm Calm - N/A   Clear
4:53 AM 44.1 °F 40.8 °F 39.0 °F 82% 29.91 in 9.0 mi South 5.8 mph - N/A   Clear
5:53 AM 45.0 °F - 39.0 °F 80% 29.92 in 9.0 mi Calm Calm - N/A   Clear
6:53 AM 43.0 °F 39.5 °F 37.9 °F 82% 29.95 in 8.0 mi South 5.8 mph - N/A   Clear
7:53 AM 46.0 °F 44.8 °F 42.1 °F 86% 29.98 in 6.0 mi SSW 3.5 mph - N/A   Clear
8:53 AM 53.1 °F - 45.0 °F 74% 30.00 in 9.0 mi Calm Calm - N/A   Clear
9:53 AM 59.0 °F - 45.0 °F 60% 30.02 in 10.0 mi Variable 3.5 mph - N/A   Clear
10:53 AM 63.0 °F - 46.0 °F 54% 30.02 in 10.0 mi SSE 3.5 mph - N/A   Clear
11:53 AM 66.0 °F - 46.0 °F 48% 30.01 in 10.0 mi Calm Calm - N/A   Clear
12:53 PM 70.0 °F - 46.0 °F 42% 30.00 in 10.0 mi South 6.9 mph - N/A   Clear
1:53 PM 72.0 °F - 44.1 °F 37% 29.98 in 10.0 mi Calm Calm - N/A   Clear
2:53 PM 75.0 °F - 45.0 °F 34% 29.96 in 10.0 mi Variable 4.6 mph - N/A   Clear
3:53 PM 75.9 °F - 43.0 °F 31% 29.93 in 10.0 mi SE 6.9 mph - N/A   Clear
4:53 PM 75.9 °F - 44.1 °F 32% 29.91 in 10.0 mi Variable 5.8 mph - N/A   Clear
5:53 PM 75.0 °F - 45.0 °F 34% 29.90 in 10.0 mi East 8.1 mph - N/A   Clear
6:53 PM 73.9 °F - 45.0 °F 35% 29.89 in 10.0 mi East 4.6 mph - N/A   Clear
7:53 PM 70.0 °F - 45.0 °F 41% 29.90 in 10.0 mi ENE 4.6 mph - N/A   Clear
8:53 PM 64.9 °F - 46.0 °F 50% 29.91 in 10.0 mi ESE 4.6 mph - N/A   Clear
9:53 PM 64.0 °F - 46.0 °F 52% 29.93 in 10.0 mi SE 4.6 mph - N/A   Clear
10:53 PM 62.1 °F - 44.1 °F 52% 29.95 in 10.0 mi SE 5.8 mph - N/A   Clear
11:53 PM 60.1 °F - 43.0 °F 53% 29.96 in 10.0 mi SE 5.8 mph - N/A   Clear